Simultaneous Nadir Overpasses (SNOs) Predictions

Prediction of SNOs between AQUA and METOP-C Satellite Orbit:

Table of predicted SNOs for the next 14.0 days since TLE Epoch: 4/26/2025
Index Date (AQUA) Time (AQUA) Lat,Lon (AQUA) SZA (AQUA ) Date (METOP-C) Time (METOP-C) Lat,Lon (METOP-C) SZA (METOP-C ) Distance(km) Time Diff (sec)
1 04/28/2025 08:39:53 76.45, 52.13 62.11 04/28/2025 08:38:51 76.45, 52.21 62.11 2.11 62
2 04/28/2025 09:29:10 -76.49,-140.30 117.87 04/28/2025 09:29:31 -76.49,-140.34 117.87 1.08 21
3 04/30/2025 21:28:21 76.45,-139.91 61.33 04/30/2025 21:27:49 76.47,-139.97 61.35 2.66 32
4 04/30/2025 22:17:40 -76.53, 27.50 118.61 04/30/2025 22:18:30 -76.50, 27.48 118.63 2.93 50
5 05/03/2025 09:27:24 -76.19,-138.77 119.66 05/03/2025 09:26:15 -76.16,-140.66 119.72 50.31 69
6 05/03/2025 10:16:49 76.48, 27.94 60.61 05/03/2025 10:16:48 76.48, 27.81 60.60 3.47 1
7 05/03/2025 11:06:13 -76.79,-165.49 119.11 05/03/2025 11:07:22 -76.82,-163.55 119.05 49.23 69
8 05/05/2025 22:15:56 -76.49, 28.20 120.10 05/05/2025 22:15:07 -76.47, 28.22 120.12 2.06 49
9 05/05/2025 23:05:16 76.54,-164.31 59.94 05/05/2025 23:05:46 76.51,-164.29 59.92 2.90 30
10 05/08/2025 11:04:20 -76.48,-163.81 120.80 05/08/2025 11:04:05 -76.50,-163.92 120.79 3.38 15



Historial Predications of SNOs between AQUA and METOP-C
